Location: Cussy
(47.0410°N, 4.6412°E)
Time: 14:29:42
(UTC+00:00)

SL-08 R/B - Pass Details

Date: 30 November 2020
Orbit: 950 x 1018 km, 82.9° (Epoch: 26 January)

Event Time Altitude Azimuth Distance (km) Brightness Sun altitude
Rises 17:35:09 0° 352° (N) 3,656 7.4 -16.6°
Reaches altitude 10° 17:37:41 10° 354° (N) 2,699 6.7 -17.0°
Maximum altitude 17:43:51 74° 80° (E) 991 4.3 -18.0°
Drops below altitude 10° 17:49:56 10° 166° (SSE) 2,669 6.8 -19.0°
Sets 17:52:25 0° 168° (SSE) 3,612 7.5 -19.4°
